Hourly Weather Roundup
Issued by NWS Central Illinois

Home | Current Version | Previous Version | Text Only | Print | Product List | Glossary On
Versions: 1 2 3 4 5 6 7 8 9 10 11 12 13 14 15 16 17 18 19 20 21 22 23 24 25 26 27 28 29 30 31 32 33 34 35 36 37 38 39 40 41 42 43 44 45 46 47 48 49 50
000
NZUS43 KILX 031510
HWRILX

AREA WEATHER ROUNDUP
NATIONAL WEATHER SERVICE, LINCOLN IL
1000 AM CDT MON AUG 03 2015


CITY           SKY/WX    TMP DP  RH WIND       PRES   REMARKS
BLOOMINGTON    SUNNY     80  67  64 W3        29.88R HX  82
CHAMPAIGN      SUNNY     80  70  71 W7        29.86R HX  83
DANVILLE       SUNNY     80  69  70 NW5       29.82S HX  82
DECATUR        SUNNY     80  69  69 W9        29.87R HX  83
EFFINGHAM      SUNNY     82  62  50 SW7       29.89S HX  83
FLORA          SUNNY     83  64  52 W6        29.88S HX  85
GALESBURG      SUNNY     74  60  60 N10       29.91R
JACKSONVILLE   SUNNY     78  68  69 W7        29.91R HX  81
LACON          SUNNY     76  63  64 N9        29.87R
LAWRENCEVILLE  SUNNY     84  70  62 W9        29.86S HX  88
LITCHFIELD     SUNNY     79  65  63 W7        29.90S HX  81
$$


CITY           SKY/WX    TMP DP  RH WIND       PRES   REMARKS
LINCOLN        SUNNY     80  67  64 W5        29.87R HX  83
MACOMB         SUNNY     75  63  66 N7        29.94R
MATTOON        SUNNY     81  67  62 W8        29.86R HX  83
MT CARMEL AP   SUNNY     82  68  61 W8        29.87S HX  85
OLNEY-NOBLE AP SUNNY     81  66  61 W8        29.89R HX  83
PARIS          SUNNY     82  72  73 W7        29.86R HX  86
PEORIA         SUNNY     79  64  60 VRB6      29.88R HX  81
PONTIAC        SUNNY     79  66  62 N7        29.86F HX  81
RANTOUL        SUNNY     82  69  63 NW3       29.85S HX  85
ROBINSON       SUNNY     82  70  66 W7        29.87S HX  85
SPRINGFIELD    SUNNY     78  68  71 W6        29.89R HX  80
TAYLORVILLE    MOSUNNY   77  68  73 W8        29.89R
$$

...REGIONAL REPORTS...


CITY           SKY/WX    TMP DP  RH WIND       PRES   REMARKS
CHICAGO O`HARE MOSUNNY   75  57  53 N13       29.85R
KANKAKEE       SUNNY     79  66  63 NW8       29.86R HX  81
MOLINE         SUNNY     76  53  44 N9        29.90R
MOUNT STERLING NOT AVBL
MOUNT VERNON   SUNNY     84  64  51 W7        29.90S HX  86
PITTSFIELD     SUNNY     78  65  63 NW6       29.93S HX  80
QUINCY         PTSUNNY   76  63  64 W6        29.93R
ROCKFORD       MOSUNNY   76  51  41 NW10      29.90R
$$


CITY           SKY/WX    TMP DP  RH WIND       PRES   REMARKS
BURLINGTON     SUNNY     76  61  59 VRB7      29.93R
CEDAR RAPIDS   SUNNY     71  60  68 N5        29.93R
DES MOINES     MOSUNNY   76  52  43 CALM      29.97R
KIRKSVILLE     SUNNY     76  60  57 VRB5      29.96S
OTTUMWA        MOSUNNY   72  60  66 N8        29.93S
ST LOUIS       MOSUNNY   88  62  41 NW5       29.90S HX  88
$$


CITY           SKY/WX    TMP DP  RH WIND       PRES   REMARKS
TERRE HAUTE    SUNNY     83  70  64 SW7       29.84S HX  87
EVANSVILLE     SUNNY     86  68  54 W8        29.89S HX  89
INDIANAPOLIS   PTSUNNY   80  71  74 SW8       29.84S HX  84
LAFAYETTE      SUNNY     80  70  71 W5        29.83R HX  83
MADISON        SUNNY     73  50  44 NW12      29.87R
MILWAUKEE      SUNNY     75  49  39 W9        29.83S
$$




USA.gov is the U.S. government's official web portal to all federal, state and local government web resources and services.